Weather History for KMKC - November, 2012

Change the Weather History Date:

Monday, November 5, 2012

  Actual Average Record
Temperature  
Mean Temperature 46 °F -  
Max Temperature 50 °F 55 °F 73 °F (2008)
Min Temperature 42 °F 39 °F 32 °F (2010)
Degree Days  
Heating Degree Days 19    
Moisture  
Dew Point 42 °F    
Average Humidity 86    
Maximum Humidity 93    
Minimum Humidity 81    
Precipitation  
Precipitation 0.11 in - - ()
Sea Level Pressure  
Sea Level Pressure 30.05 in    
Wind  
Wind Speed 5 mph (North)    
Max Wind Speed 13 mph    
Max Gust Speed 20 mph    
Visibility 6 miles    
Events Rain    
Averages and records for this station are not official NWS values.
T = Trace of Precipitation, MM = Missing Value Source: NWS Daily Summary

Daily Weather History Graph

Daily Weather History Graph

Search for Another Location

Airport or City:

Trip Planner

Search our weather history database for the weather conditions in past years. The results will help you decide how hot, cold, wet, or windy it might be!

Date:

Astronomy

Nov. 05, 2012 Rise Set
Actual Time 6:50 AM CST 5:12 PM CST
Civil Twilight 6:22 AM CST 5:40 PM CST
Nautical Twilight 5:51 AM CST 6:12 PM CST
Astronomical Twilight 5:19 AM CST 6:43 PM CST
Moon 10:50 PM CST (11/5) 12:10 PM CST (11/5)
Length of Visible Light 11h 17m
Length of Day
10h 21m
Waning Gibbous, 62% of the Moon is Illuminated
Nov 5
Waning Gibbous
Nov 6
Last Quarter
Nov 13
New
Nov 20
First Quarter
Nov 28
Full

Hourly Weather History & Observations

Time (CST) Temp. Windchill Dew Point Humidity Pressure Visibility Wind Dir Wind Speed Gust Speed Precip Events Conditions
12:54 AM 50.0 °F - 45.0 °F 83% 30.00 in 10.0 mi NE 3.5 mph - 0.00 in   Overcast
1:54 AM 50.0 °F - 45.0 °F 83% 29.98 in 7.0 mi Calm Calm - 0.00 in   Overcast
2:54 AM 50.0 °F - 45.0 °F 83% 29.97 in 10.0 mi East 3.5 mph - 0.00 in Rain Light Rain
3:54 AM 48.9 °F - 45.0 °F 86% 29.97 in 6.0 mi North 3.5 mph - 0.02 in Rain Light Rain
4:54 AM 48.0 °F - 45.0 °F 89% 29.97 in 5.0 mi NNE 5.8 mph - 0.05 in Rain Light Rain
5:15 AM 46.4 °F 45.2 °F 44.6 °F 93% 29.98 in 4.0 mi North 3.5 mph - 0.01 in Rain Light Rain
5:36 AM 46.4 °F - 44.6 °F 93% 29.97 in 5.0 mi Calm Calm - 0.01 in Rain Light Rain
5:54 AM 46.9 °F - 44.1 °F 90% 29.98 in 5.0 mi NNW 3.5 mph - 0.02 in Rain Light Rain
6:01 AM 46.4 °F - 44.6 °F 93% 29.98 in 4.0 mi Calm Calm - 0.00 in Rain Light Rain
6:54 AM 48.0 °F - 45.0 °F 89% 29.98 in 4.0 mi NW 5.8 mph - 0.01 in Rain Light Rain
7:18 AM 48.2 °F - 44.6 °F 87% 29.99 in 4.0 mi NW 5.8 mph - 0.00 in   Overcast
7:54 AM 48.9 °F - 45.0 °F 86% 29.99 in 4.0 mi NNW 9.2 mph - 0.01 in   Overcast
8:29 AM 48.2 °F - 44.6 °F 87% 30.00 in 3.0 mi NW 10.4 mph - 0.00 in Rain Light Rain
8:54 AM 48.0 °F - 45.0 °F 89% 30.01 in 5.0 mi NNW 10.4 mph - 0.00 in Rain Light Rain
9:24 AM 48.2 °F - 44.6 °F 87% 30.01 in 5.0 mi North 9.2 mph - 0.00 in   Overcast
9:42 AM 48.2 °F - 44.6 °F 87% 30.02 in 5.0 mi NNW 9.2 mph - 0.00 in   Overcast
9:54 AM 48.0 °F - 44.1 °F 86% 30.02 in 4.0 mi NNW 9.2 mph 17.3 mph 0.00 in   Overcast
10:54 AM 46.9 °F - 43.0 °F 86% 30.04 in 8.0 mi North 10.4 mph 18.4 mph N/A   Overcast
11:40 AM 46.4 °F 41.9 °F 42.8 °F 87% 30.05 in 9.0 mi North 9.2 mph - N/A   Overcast
11:54 AM 46.0 °F 40.2 °F 42.1 °F 86% 30.05 in 5.0 mi North 12.7 mph - N/A   Overcast
12:54 PM 45.0 °F 39.7 °F 41.0 °F 86% 30.06 in 6.0 mi North 10.4 mph - N/A   Overcast
1:54 PM 45.0 °F 40.1 °F 39.9 °F 82% 30.06 in 7.0 mi North 9.2 mph 19.6 mph N/A   Overcast
2:54 PM 44.1 °F 38.6 °F 39.9 °F 85% 30.06 in 5.0 mi North 10.4 mph - N/A   Overcast
3:54 PM 44.1 °F 38.6 °F 39.9 °F 85% 30.08 in 6.0 mi North 10.4 mph - N/A   Overcast
4:54 PM 44.1 °F 40.1 °F 39.0 °F 82% 30.10 in 7.0 mi North 6.9 mph - N/A   Overcast
5:54 PM 44.1 °F 40.8 °F 39.0 °F 82% 30.12 in 6.0 mi North 5.8 mph - N/A   Haze
6:54 PM 43.0 °F 37.7 °F 39.0 °F 86% 30.13 in 7.0 mi NNE 9.2 mph - N/A   Overcast
7:54 PM 43.0 °F 38.2 °F 39.0 °F 86% 30.12 in 7.0 mi NNE 8.1 mph - N/A   Overcast
8:54 PM 43.0 °F 39.5 °F 39.0 °F 86% 30.12 in 7.0 mi NE 5.8 mph - N/A   Overcast
9:47 PM 42.8 °F 39.3 °F 37.4 °F 81% 30.12 in 9.0 mi North 5.8 mph - N/A   Overcast
9:54 PM 43.0 °F 41.3 °F 37.9 °F 82% 30.13 in 9.0 mi North 3.5 mph - N/A   Overcast
10:20 PM 42.8 °F 41.1 °F 39.2 °F 87% 30.11 in 8.0 mi NNE 3.5 mph - N/A   Overcast
10:54 PM 43.0 °F 41.3 °F 37.9 °F 82% 30.11 in 9.0 mi North 3.5 mph - N/A   Overcast
11:10 PM 42.8 °F 41.1 °F 37.4 °F 81% 30.11 in 9.0 mi NNW 3.5 mph - N/A   Overcast
11:31 PM 42.8 °F 41.1 °F 37.4 °F 81% 30.10 in 10.0 mi North 3.5 mph - N/A   Overcast
11:39 PM 42.8 °F 41.1 °F 37.4 °F 81% 30.10 in 9.0 mi North 3.5 mph - N/A   Overcast
11:54 PM 43.0 °F 41.3 °F 37.9 °F 82% 30.10 in 9.0 mi NE 3.5 mph - N/A   Overcast